[[{"header":{"parameterUnit":"m.s-1","parameterCategory":1,"la1":30.2991,"la2":30.254,"lo1":-89.0895,"lo2":-89.0444,"dy":0.0017,"dx":0.0017,"nx":28,"ny":28,"refTime":"2024-08-05T03:00:00:Z","depth":0,"parameterNumber":2,"parameterNumberName":"U-component_of_WINDS"},"data":[0,0,0,0,0,0,0,0,0,0,0,0,0,0,0,0,0,0,0,0,0,0,0,0,0,0,0,0,0,0,0,0,0,0,0,0,0,0,0,0,0,0,0,0,0,0,0,0,0,0,0,0,0,0,0,0,0,0,-0.5783,-0.5783,0,-0.5786,-0.5786,-0.5787,-0.5752,-0.5751,-0.575,-0.5749,-0.5753,-0.5754,-0.5755,0,0,0,0,0,0,0,0,0,0,0,0,0,-0.5746,-0.5747,-0.5783,-0.5783,-0.5783,-0.5786,-0.5786,-0.5787,-0.5752,-0.5751,-0.5749,-0.5748,-0.5752,-0.5754,-0.5755,0,0,0,0,0,0,0,0,0,0,0,0,0,-0.5757,-0.5747,-0.5783,-0.5766,-0.5764,-0.5786,-0.5786,-0.5787,-0.5752,-0.575,-0.5749,-0.5748,-0.5752,-0.5753,-0.5755,-0.5793,0,0,-0.576,-0.576,0,0,0,0,0,0,0,0,-0.5756,-0.5758,-0.5768,-0.5767,-0.5765,-0.5767,-0.5775,-0.5789,-0.5752,-0.5757,-0.5749,-0.5747,-0.5759,-0.576,-0.5763,-0.5794,-0.5794,-0.576,-0.5761,-0.5761,-0.5762,0,0,0,0,0,0,0,-0.5756,-0.5758,-0.5784,-0.5769,-0.5767,-0.5758,-0.5758,-0.5777,-0.5766,-0.5756,-0.5754,-0.5755,-0.5758,-0.5762,-0.5763,-0.5794,-0.576,-0.5761,-0.5762,-0.5763,-0.5856,-0.5857,0,0,0,0,0,0,-0.5757,-0.5758,-0.5784,-0.5784,-0.5757,-0.576,-0.576,-0.5768,-0.5765,-0.5764,-0.5756,-0.5753,-0.576,-0.5762,-0.5763,-0.5808,-0.5761,-0.5763,-0.5764,-0.5854,-0.5856,-0.5858,0,0,0,0,0,0,-0.5756,-0.576,-0.5784,-0.577,-0.5773,-0.5762,-0.5771,-0.5769,-0.5773,-0.5765,-0.5763,-0.5762,-0.5759,-0.5761,-0.5786,-0.5808,-0.5763,-0.5765,-0.5852,-0.5855,-0.5857,-0.5899,0,0,0,0,0,0,-0.5756,-0.576,-0.5774,-0.5771,-0.5774,-0.5807,-0.5773,-0.577,-0.5776,-0.5772,-0.5771,-0.5769,-0.5758,-0.5784,-0.5788,-0.5809,-0.5766,-0.585,-0.5854,-0.5856,-0.5895,-0.5902,-0.5908,0,0,0,0,0,-0.5754,-0.5786,-0.5775,-0.5779,-0.5791,-0.5808,-0.581,-0.5796,-0.5778,-0.5792,-0.5787,-0.5769,-0.5805,-0.5787,-0.5791,-0.5813,-0.5849,-0.5853,-0.5856,-0.5892,-0.5901,-0.5908,0,0,0,0,0,0,-0.5792,-0.5785,-0.5773,-0.5804,-0.5807,-0.5802,-0.582,-0.5805,-0.5813,-0.581,-0.5793,-0.5793,-0.5821,-0.5819,-0.5799,-0.585,-0.5824,-0.5828,-0.585,-0.5858,-0.5864,-0.5864,-0.5767,0,0,0,0,0,-0.5804,-0.5818,-0.5811,-0.5839,-0.5841,-0.5831,-0.5837,-0.5827,-0.5829,-0.583,-0.5827,-0.583,-0.5841,-0.5849,-0.586,-0.5895,-0.5894,-0.5912,-0.5918,-0.5924,-0.5928,-0.5946,-0.5954,-0.587,-0.587,-0.5869,0,0,-0.5829,-0.5827,-0.5836,-0.5847,-0.5848,-0.5863,-0.5832,-0.5849,-0.586,-0.5833,-0.5856,-0.5854,-0.5856,-0.5886,-0.5899,-0.5886,-0.5951,-0.5928,-0.5932,-0.5934,-0.5951,-0.5959,-0.5966,-0.5872,-0.5871,-0.5871,0,0,-0.5881,-0.5881,-0.5905,-0.5906,-0.5908,-0.5901,-0.5907,-0.5904,-0.5901,-0.5925,-0.5904,-0.5917,-0.5938,-0.5941,-0.5944,-0.5999,-0.5983,-0.6003,-0.6036,-0.6054,-0.6061,-0.6067,-0.6086,-0.6094,-0.6007,-0.6007,-0.6007,0,-0.5912,-0.5934,-0.5919,-0.5938,-0.5943,-0.5919,-0.5942,-0.5945,-0.595,-0.5954,-0.5939,-0.5965,-0.5964,-0.5995,-0.6008,-0.6012,-0.6018,-0.6003,-0.6061,-0.6067,-0.6072,-0.6091,-0.6098,-0.6009,-0.6009,-0.6009,-0.6008,0,-0.5972,-0.5987,-0.6006,-0.6012,-0.6019,-0.604,-0.6029,-0.6038,-0.6027,-0.6021,-0.6045,-0.6044,-0.6054,-0.606,-0.605,-0.609,-0.6081,-0.6064,-0.6037,-0.6083,-0.61,-0.6107,-0.6013,-0.6012,-0.6011,-0.601,0,0,-0.6048,-0.6045,-0.6053,-0.6055,-0.6055,-0.6067,-0.6087,-0.6097,-0.6105,-0.611,-0.6127,-0.6145,-0.6129,-0.6133,-0.6123,-0.6139,-0.6182,-0.6119,-0.6119,-0.6131,-0.6227,-0.624,-0.6248,-0.6171,-0.6173,-0.6174,-0.6227,0,-0.61,-0.6134,-0.6122,-0.6157,-0.6171,-0.6149,-0.6166,-0.6168,-0.6164,-0.6175,-0.617,-0.6183,-0.6161,-0.6164,-0.6179,-0.6174,-0.6201,-0.617,-0.6187,-0.6188,-0.6188,-0.6257,-0.6271,-0.6321,-0.6233,-0.6234,-0.6235,0,-0.6165,-0.6172,-0.6209,-0.6207,-0.6213,-0.6229,-0.6237,-0.6248,-0.625,-0.6246,-0.6251,-0.6237,-0.6257,-0.623,-0.6257,-0.6236,-0.6243,-0.6241,-0.6243,-0.6244,-0.6215,-0.6261,-0.6337,-0.6344,-0.6245,-0.6245,-0.6244,0,-0.6218,-0.6236,-0.6261,-0.6264,-0.6262,-0.6274,-0.6274,-0.6274,-0.6281,-0.6288,-0.6292,-0.6302,-0.6307,-0.6314,-0.6303,-0.6285,-0.6333,-0.6305,-0.633,-0.633,-0.6341,-0.634,-0.6419,-0.6345,-0.6344,-0.6344,-0.6344,0,-0.6277,-0.6301,-0.6285,-0.63,-0.6326,-0.6311,-0.6337,-0.6334,-0.6335,-0.6349,-0.633,-0.6344,-0.6328,-0.6341,-0.6332,-0.6356,-0.6359,-0.6356,-0.6353,-0.6358,-0.6358,-0.6362,-0.6358,-0.6346,-0.6346,-0.6345,-0.6345,0,-0.634,-0.633,-0.6356,-0.6352,-0.6352,-0.6371,-0.6368,-0.6382,-0.6376,-0.6394,-0.6398,-0.6388,-0.6402,-0.6392,-0.6405,-0.6399,-0.6432,-0.6424,-0.6431,-0.6429,-0.6455,-0.6453,-0.6539,-0.655,-0.6468,-0.6469,-0.6469,0,-0.6379,-0.6396,-0.6395,-0.6403,-0.6404,-0.6417,-0.6424,-0.641,-0.6418,-0.6422,-0.6436,-0.6448,-0.6457,-0.648,-0.6474,-0.6485,-0.6478,-0.6507,-0.6479,-0.6483,-0.6478,-0.6478,-0.6479,-0.6513,-0.6514,-0.6515,-0.6515,0,-0.6448,-0.6443,-0.6453,-0.6463,-0.6471,-0.6478,-0.6483,-0.649,-0.6476,-0.6486,-0.65,-0.6507,-0.6521,-0.6533,-0.6542,-0.6542,-0.6526,-0.6524,-0.653,-0.6535,-0.6539,-0.6538,-0.6447,-0.6522,-0.6522,-0.6521,-0.6521,-0.652,-0.6501,-0.6515,-0.6517,-0.6529,-0.6531,-0.6536,-0.655,-0.6545,-0.6556,-0.6567,-0.6558,-0.6575,-0.6576,-0.6586,-0.6588,-0.6601,-0.6589,-0.6598,-0.66,-0.6603,-0.6607,-0.6537,-0.6602,-0.6602,-0.6602,-0.6602,-0.6602,0,-0.657,-0.6569,-0.6581,-0.6589,-0.6599,-0.6583,-0.6588,-0.6597,-0.6612,-0.6615,-0.6624,-0.6641,-0.6653,-0.6648,-0.6659,-0.667,-0.6664,-0.6674,-0.6673,-0.6673,-0.6617,-0.661,-0.6679,-0.6679,-0.6679,-0.6679,-0.6679,-0.6679,-0.6607,-0.6631,-0.6626,-0.6651,-0.665,-0.6667,-0.6671,-0.6675,-0.6678,-0.6697,-0.6707,-0.6704,-0.6704,-0.6714,-0.6725,-0.6723,-0.6728,-0.6741,-0.6737,-0.6685,-0.6677,-0.667,-0.6664,-0.6742,-0.6742,-0.6792,-0.6792,-0.6793]},{"header":{"parameterUnit":"m.s-1","parameterCategory":1,"la1":30.2991,"la2":30.254,"lo1":-89.0895,"lo2":-89.0444,"dy":0.0017,"dx":0.0017,"nx":28,"ny":28,"refTime":"2024-08-05T03:00:00:Z","depth":0,"parameterNumber":3,"parameterNumberName":"V-component_of_WINDS"},"data":[0,0,0,0,0,0,0,0,0,0,0,0,0,0,0,0,0,0,0,0,0,0,0,0,0,0,0,0,0,0,0,0,0,0,0,0,0,0,0,0,0,0,0,0,0,0,0,0,0,0,0,0,0,0,0,0,0,0,-0.8494,-0.8493,0,-0.8398,-0.8397,-0.8396,-0.8322,-0.8321,-0.8321,-0.832,-0.8221,-0.8219,-0.8217,0,0,0,0,0,0,0,0,0,0,0,0,0,-0.8613,-0.8611,-0.8494,-0.8493,-0.8492,-0.8398,-0.8397,-0.8396,-0.8322,-0.8321,-0.8321,-0.832,-0.8222,-0.8219,-0.8217,0,0,0,0,0,0,0,0,0,0,0,0,0,-0.8543,-0.861,-0.8494,-0.8444,-0.8438,-0.8399,-0.8397,-0.8395,-0.8322,-0.8321,-0.832,-0.8319,-0.8222,-0.822,-0.8217,-0.8219,0,0,-0.8208,-0.8206,0,0,0,0,0,0,0,0,-0.8547,-0.8539,-0.8452,-0.8447,-0.8441,-0.8371,-0.8402,-0.8336,-0.8323,-0.8366,-0.832,-0.8319,-0.8272,-0.8265,-0.8249,-0.8214,-0.821,-0.8207,-0.8205,-0.8204,-0.8203,0,0,0,0,0,0,0,-0.8552,-0.8543,-0.8456,-0.8451,-0.8444,-0.8426,-0.8415,-0.839,-0.8326,-0.8362,-0.8357,-0.8347,-0.8268,-0.8252,-0.8246,-0.8209,-0.8207,-0.8205,-0.8203,-0.8202,-0.8172,-0.8173,0,0,0,0,0,0,-0.8565,-0.8547,-0.8459,-0.8453,-0.8493,-0.8424,-0.8412,-0.8395,-0.8326,-0.8315,-0.8348,-0.8344,-0.8258,-0.825,-0.8242,-0.8241,-0.8204,-0.8201,-0.82,-0.8171,-0.8173,-0.8174,0,0,0,0,0,0,-0.8568,-0.8558,-0.8463,-0.8499,-0.8485,-0.8423,-0.8404,-0.8393,-0.8377,-0.8315,-0.8303,-0.8343,-0.8256,-0.8246,-0.8226,-0.8237,-0.82,-0.8197,-0.817,-0.8172,-0.8173,-0.824,0,0,0,0,0,0,-0.8572,-0.8559,-0.856,-0.8499,-0.8484,-0.8448,-0.8405,-0.8392,-0.8372,-0.8366,-0.8307,-0.8296,-0.8255,-0.8231,-0.8223,-0.8232,-0.8195,-0.8169,-0.8171,-0.8173,-0.8236,-0.8243,-0.825,0,0,0,0,0,-0.8576,-0.8582,-0.856,-0.855,-0.8483,-0.8449,-0.844,-0.8393,-0.8373,-0.8373,-0.8333,-0.8298,-0.8237,-0.8229,-0.822,-0.8228,-0.8168,-0.817,-0.8173,-0.8233,-0.8242,-0.8249,0,0,0,0,0,0,-0.8645,-0.8573,-0.8548,-0.8535,-0.8499,-0.8437,-0.8435,-0.8403,-0.8372,-0.8367,-0.8309,-0.8296,-0.8282,-0.8253,-0.8245,-0.8228,-0.8198,-0.8199,-0.8248,-0.8255,-0.8262,-0.8269,-0.8193,0,0,0,0,0,-0.8659,-0.8637,-0.8576,-0.857,-0.8553,-0.8498,-0.8481,-0.8448,-0.8408,-0.8392,-0.8351,-0.8313,-0.8286,-0.8269,-0.8239,-0.8232,-0.8218,-0.8233,-0.824,-0.8245,-0.8247,-0.8241,-0.8247,-0.8181,-0.8181,-0.8181,0,0,-0.8686,-0.8644,-0.8635,-0.8582,-0.8551,-0.853,-0.8485,-0.8465,-0.8449,-0.8389,-0.8367,-0.8336,-0.829,-0.8276,-0.8268,-0.8251,-0.8262,-0.8248,-0.8253,-0.8251,-0.8244,-0.8251,-0.8256,-0.8183,-0.8183,-0.8182,0,0,-0.8727,-0.8693,-0.8685,-0.8654,-0.8607,-0.857,-0.8568,-0.8511,-0.8488,-0.8465,-0.842,-0.84,-0.8353,-0.8323,-0.8302,-0.8332,-0.8298,-0.8324,-0.8358,-0.8354,-0.8359,-0.8363,-0.8375,-0.838,-0.8325,-0.8325,-0.8325,0,-0.8767,-0.8735,-0.8684,-0.8667,-0.8646,-0.8591,-0.8582,-0.8555,-0.85,-0.8487,-0.8469,-0.841,-0.8375,-0.8354,-0.8362,-0.8345,-0.8342,-0.833,-0.8362,-0.8366,-0.8369,-0.838,-0.8384,-0.8329,-0.8328,-0.8328,-0.8327,0,-0.8788,-0.8766,-0.8765,-0.8715,-0.8693,-0.8681,-0.8628,-0.8612,-0.8581,-0.8546,-0.8524,-0.848,-0.8442,-0.8434,-0.8403,-0.8409,-0.84,-0.8373,-0.8342,-0.838,-0.8389,-0.8392,-0.8334,-0.8332,-0.8331,-0.833,0,0,-0.8869,-0.8792,-0.8792,-0.8769,-0.8713,-0.8695,-0.868,-0.8643,-0.8631,-0.8596,-0.8582,-0.8544,-0.8519,-0.8495,-0.8459,-0.8455,-0.8483,-0.8429,-0.8427,-0.8441,-0.8488,-0.8509,-0.8515,-0.846,-0.8461,-0.8461,-0.8492,0,-0.8902,-0.8872,-0.8827,-0.8812,-0.8792,-0.8739,-0.8726,-0.8691,-0.8658,-0.8636,-0.8599,-0.8573,-0.8542,-0.8527,-0.852,-0.8481,-0.8492,-0.8478,-0.8448,-0.8447,-0.8462,-0.8519,-0.8542,-0.8573,-0.8495,-0.8496,-0.8496,0,-0.8936,-0.8904,-0.8888,-0.8835,-0.8824,-0.8814,-0.8777,-0.8756,-0.8714,-0.8691,-0.8664,-0.8626,-0.8608,-0.8579,-0.8553,-0.8545,-0.853,-0.8509,-0.8509,-0.8505,-0.8475,-0.8518,-0.8581,-0.8587,-0.8501,-0.85,-0.85,0,-0.8998,-0.8951,-0.8936,-0.8918,-0.8855,-0.8848,-0.8822,-0.8779,-0.876,-0.8728,-0.8715,-0.868,-0.8662,-0.8636,-0.859,-0.8573,-0.8569,-0.8537,-0.8549,-0.8551,-0.8552,-0.8552,-0.8615,-0.854,-0.854,-0.854,-0.854,0,-0.904,-0.9033,-0.8963,-0.8954,-0.8944,-0.8892,-0.8883,-0.8852,-0.8815,-0.8798,-0.875,-0.8736,-0.8675,-0.8653,-0.8617,-0.8601,-0.8593,-0.8573,-0.8564,-0.8578,-0.8581,-0.8568,-0.8565,-0.8541,-0.8541,-0.8541,-0.8541,0,-0.9108,-0.9062,-0.9042,-0.8984,-0.8969,-0.8965,-0.8915,-0.8904,-0.8868,-0.8848,-0.8841,-0.8785,-0.8757,-0.8708,-0.8666,-0.8641,-0.8634,-0.8617,-0.8648,-0.8642,-0.8658,-0.8658,-0.8715,-0.8721,-0.8643,-0.8643,-0.8644,0,-0.9139,-0.9132,-0.9074,-0.906,-0.9035,-0.9013,-0.8994,-0.8941,-0.8923,-0.8876,-0.8871,-0.884,-0.8812,-0.877,-0.8725,-0.8693,-0.8676,-0.8698,-0.867,-0.8686,-0.8677,-0.8679,-0.8678,-0.8705,-0.8706,-0.8707,-0.8707,0,-0.9198,-0.9176,-0.915,-0.9117,-0.9095,-0.9066,-0.9035,-0.9026,-0.8966,-0.8948,-0.892,-0.8898,-0.8856,-0.8826,-0.8787,-0.8759,-0.8724,-0.8716,-0.8718,-0.8733,-0.8752,-0.8743,-0.8666,-0.8715,-0.8715,-0.8714,-0.8714,-0.8713,-0.9249,-0.9241,-0.9199,-0.9173,-0.9143,-0.9115,-0.9103,-0.9066,-0.9041,-0.9003,-0.8973,-0.8947,-0.8906,-0.8851,-0.8825,-0.8804,-0.8787,-0.8789,-0.879,-0.8792,-0.8798,-0.8755,-0.8797,-0.8796,-0.8796,-0.8796,-0.8795,0,-0.9307,-0.9277,-0.9253,-0.9211,-0.9191,-0.9159,-0.9123,-0.9107,-0.9085,-0.905,-0.9024,-0.8992,-0.8962,-0.8916,-0.8882,-0.8874,-0.8857,-0.8867,-0.8868,-0.8862,-0.8814,-0.8816,-0.8882,-0.8882,-0.8882,-0.8882,-0.8882,-0.8882,-0.9335,-0.932,-0.9293,-0.9263,-0.9233,-0.9208,-0.919,-0.9164,-0.9136,-0.9102,-0.9078,-0.9047,-0.9008,-0.8971,-0.8943,-0.893,-0.892,-0.8936,-0.8918,-0.8874,-0.8866,-0.8858,-0.886,-0.8934,-0.8934,-0.8968,-0.8969,-0.8969]}]]